Weather History for Lexington, NE

Change the Weather History Date:

Saturday, November 2, 2013

  Actual Average Record
Temperature  
Mean Temperature 42 °F -  
Max Temperature 59 °F 52 °F 80 °F (2005)
Min Temperature 26 °F 29 °F 15 °F (1999)
Degree Days  
Heating Degree Days 22    
Moisture  
Dew Point 27 °F    
Average Humidity 60    
Maximum Humidity 89    
Minimum Humidity 25    
Precipitation  
Precipitation 0.00 in - - ()
Sea Level Pressure  
Sea Level Pressure 30.12 in    
Wind  
Wind Speed 9 mph (WSW)    
Max Wind Speed 20 mph    
Max Gust Speed 25 mph    
Visibility 10 miles    
Events      
Averages and records for this station are not official NWS values.
T = Trace of Precipitation, MM = Missing Value Source: NWS Daily Summary

Daily Weather History Graph

Daily Weather History Graph

Search for Another Location

Airport:

Trip Planner

Search our weather history database for the weather conditions in past years. The results will help you decide how hot, cold, wet, or windy it might be!

Date:

Astronomy

Nov. 02, 2013 Rise Set
Actual Time 8:11 AM CDT 6:33 PM CDT
Civil Twilight 7:42 AM CDT 7:02 PM CDT
Nautical Twilight 7:10 AM CDT 7:34 PM CDT
Astronomical Twilight 6:38 AM CDT 8:06 PM CDT
Moon 7:09 AM CDT (11/2) 6:06 PM CDT (11/2)
Length of Visible Light 11h 19m
Length of Day
10h 22m
Waning Crescent, 1% of the Moon is Illuminated
Nov 2
Waning Crescent
Nov 3
New
Nov 9
First Quarter
Nov 17
Full
Nov 25
Last Quarter

Hourly Weather History & Observations

Time (CDT) Temp. Windchill Dew Point Humidity Pressure Visibility Wind Dir Wind Speed Gust Speed Precip Events Conditions
12:15 AM 33.8 °F 25.8 °F 27.5 °F 78% 30.13 in 10.0 mi WNW 10.4 mph - N/A   Clear
12:35 AM 33.8 °F 26.4 °F 27.3 °F 77% 30.13 in 10.0 mi NW 9.2 mph - N/A   Clear
12:55 AM 33.1 °F 25.5 °F 27.1 °F 79% 30.13 in 10.0 mi NW 9.2 mph - N/A   Clear
1:15 AM 32.0 °F 24.8 °F 26.6 °F 80% 30.14 in 10.0 mi NW 8.1 mph - N/A   Clear
1:35 AM 30.4 °F 24.5 °F 25.9 °F 83% 30.14 in 10.0 mi WNW 5.8 mph - N/A   Clear
1:55 AM 29.3 °F 22.3 °F 25.7 °F 86% 30.14 in 10.0 mi West 6.9 mph - N/A   Clear
2:15 AM 29.7 °F 21.3 °F 25.7 °F 85% 30.15 in 10.0 mi West 9.2 mph - N/A   Clear
2:35 AM 31.8 °F 23.9 °F 27.1 °F 83% 30.17 in 10.0 mi West 9.2 mph - N/A   Clear
2:55 AM 31.5 °F 23.5 °F 26.6 °F 82% 30.17 in 10.0 mi West 9.2 mph - N/A   Clear
3:15 AM 31.1 °F 22.4 °F 26.6 °F 83% 30.18 in 10.0 mi West 10.4 mph - N/A   Clear
3:35 AM 31.5 °F 23.5 °F 26.6 °F 82% 30.17 in 10.0 mi West 9.2 mph - N/A   Clear
3:55 AM 30.2 °F 21.3 °F 26.2 °F 85% 30.18 in 10.0 mi West 10.4 mph - N/A   Clear
4:15 AM 30.9 °F 22.8 °F 26.6 °F 84% 30.18 in 10.0 mi West 9.2 mph - N/A   Clear
4:35 AM 30.2 °F 21.9 °F 26.2 °F 85% 30.18 in 10.0 mi WNW 9.2 mph - N/A   Clear
4:55 AM 29.5 °F 21.8 °F 25.7 °F 86% 30.19 in 10.0 mi West 8.1 mph - N/A   Clear
5:15 AM 30.2 °F 22.6 °F 26.1 °F 85% 30.19 in 10.0 mi WNW 8.1 mph - N/A   Clear
5:35 AM 29.8 °F 20.9 °F 26.2 °F 86% 30.20 in 10.0 mi WNW 10.4 mph - N/A   Clear
5:55 AM 29.1 °F 21.3 °F 25.5 °F 86% 30.20 in 10.0 mi WNW 8.1 mph - N/A   Clear
6:15 AM 29.3 °F 21.5 °F 25.5 °F 86% 30.21 in 10.0 mi WNW 8.1 mph - N/A   Clear
6:35 AM 28.8 °F 21.7 °F 25.2 °F 86% 30.21 in 10.0 mi NW 6.9 mph - N/A   Clear
6:55 AM 26.8 °F 19.3 °F 23.9 °F 89% 30.21 in 10.0 mi WNW 6.9 mph - N/A   Clear
7:15 AM 27.9 °F 19.1 °F 25.0 °F 89% 30.21 in 10.0 mi WNW 9.2 mph - N/A   Clear
7:35 AM 27.1 °F 18.9 °F 24.1 °F 88% 30.21 in 10.0 mi WNW 8.1 mph - N/A   Clear
7:55 AM 27.5 °F 21.1 °F 24.3 °F 88% 30.21 in 10.0 mi WNW 5.8 mph - N/A   Clear
8:15 AM 27.7 °F 20.4 °F 24.8 °F 89% 30.21 in 10.0 mi West 6.9 mph - N/A   Clear
8:35 AM 28.4 °F 20.4 °F 25.3 °F 88% 30.22 in 10.0 mi West 8.1 mph - N/A   Clear
8:55 AM 29.1 °F 23.0 °F 25.9 °F 88% 30.22 in 10.0 mi West 5.8 mph - N/A   Clear
9:15 AM 31.6 °F 28.3 °F 27.5 °F 85% 30.23 in 10.0 mi WNW 3.5 mph - N/A   Clear
9:35 AM 32.9 °F 26.7 °F 28.4 °F 84% 30.23 in 10.0 mi WNW 6.9 mph - N/A   Clear
9:55 AM 34.7 °F 29.6 °F 29.3 °F 81% 30.24 in 10.0 mi West 5.8 mph - N/A   Clear
10:15 AM 37.6 °F 34.0 °F 30.4 °F 75% 30.24 in 10.0 mi West 4.6 mph - N/A   Clear
10:35 AM 40.5 °F 36.5 °F 30.9 °F 69% 30.24 in 10.0 mi WNW 5.8 mph - N/A   Clear
10:55 AM 43.5 °F 38.9 °F 31.1 °F 62% 30.24 in 10.0 mi WNW 8.1 mph - N/A   Clear
12:15 PM 52.7 °F - 28.8 °F 40% 30.21 in 10.0 mi West 6.9 mph - N/A   Clear
12:35 PM 54.9 °F - 28.6 °F 37% 30.20 in 10.0 mi WSW 6.9 mph - N/A   Clear
12:55 PM 55.9 °F - 27.1 °F 33% 30.20 in 10.0 mi West 4.6 mph - N/A   Clear
1:15 PM 57.2 °F - 24.1 °F 28% 30.19 in 10.0 mi SW 10.4 mph - N/A   Clear
1:35 PM 58.3 °F - 23.7 °F 26% 30.18 in 10.0 mi SW 9.2 mph - N/A   Clear
1:55 PM 58.3 °F - 23.7 °F 26% 30.17 in 10.0 mi SW 10.4 mph - N/A   Clear
2:15 PM 57.7 °F - 22.6 °F 26% 30.15 in 10.0 mi SSW 8.1 mph - N/A   Clear
2:35 PM 57.7 °F - 21.7 °F 25% 30.13 in 10.0 mi SSW 11.5 mph 17.3 mph N/A   Clear
2:55 PM 58.8 °F - 23.0 °F 25% 30.12 in 10.0 mi SSW 9.2 mph 20.7 mph N/A   Clear
3:15 PM 58.5 °F - 23.5 °F 26% 30.11 in 10.0 mi SSW 6.9 mph - N/A   Clear
3:35 PM 59.0 °F - 24.3 °F 26% 30.10 in 10.0 mi South 12.7 mph - N/A   Clear
3:55 PM 59.2 °F - 25.5 °F 28% 30.08 in 10.0 mi SW 9.2 mph - N/A   Clear
4:15 PM 59.4 °F - 25.3 °F 27% 30.07 in 10.0 mi South 13.8 mph - N/A   Clear
4:35 PM 59.4 °F - 25.2 °F 27% 30.06 in 10.0 mi SSW 9.2 mph 16.1 mph N/A   Clear
4:55 PM 59.2 °F - 25.5 °F 28% 30.06 in 10.0 mi SSW 16.1 mph - N/A   Clear
5:15 PM 59.0 °F - 25.7 °F 28% 30.05 in 10.0 mi South 13.8 mph - N/A   Clear
5:35 PM 58.1 °F - 26.6 °F 30% 30.04 in 10.0 mi South 13.8 mph - N/A   Clear
5:55 PM 56.8 °F - 27.0 °F 32% 30.04 in 10.0 mi South 11.5 mph - N/A   Clear
6:15 PM 54.1 °F - 27.3 °F 36% 30.03 in 10.0 mi SSE 8.1 mph - N/A   Clear
6:35 PM 50.9 °F - 28.4 °F 42% 30.02 in 10.0 mi SSE 8.1 mph - N/A   Clear
6:55 PM 47.8 °F - 28.9 °F 48% 30.02 in 10.0 mi SSE 8.1 mph - N/A   Clear
7:15 PM 48.7 °F - 28.4 °F 45% 30.00 in 10.0 mi SE 10.4 mph - N/A   Clear
7:35 PM 48.0 °F - 28.4 °F 47% 30.00 in 10.0 mi SSE 9.2 mph - N/A   Clear
7:55 PM 45.7 °F 40.6 °F 28.9 °F 52% 30.00 in 10.0 mi SSE 10.4 mph - N/A   Clear
8:15 PM 44.2 °F 39.2 °F 29.1 °F 55% 30.00 in 10.0 mi SSE 9.2 mph - N/A   Clear
8:35 PM 43.2 °F 37.9 °F 29.1 °F 58% 29.99 in 10.0 mi SSE 9.2 mph - N/A   Clear
8:55 PM 43.9 °F 38.8 °F 28.8 °F 55% 29.98 in 10.0 mi SSE 9.2 mph - N/A   Clear
9:15 PM 43.5 °F 37.9 °F 28.4 °F 55% 29.97 in 10.0 mi SSE 10.4 mph - N/A   Clear
9:35 PM 44.8 °F 39.0 °F 28.2 °F 52% 29.97 in 10.0 mi SSE 11.5 mph - N/A   Clear
9:55 PM 45.1 °F 39.1 °F 28.4 °F 52% 29.96 in 10.0 mi SSE 12.7 mph - N/A   Clear
10:15 PM 46.4 °F 39.2 °F 28.2 °F 49% 29.95 in 10.0 mi SSE 18.4 mph - N/A   Clear
10:35 PM 46.8 °F - 28.4 °F 49% 29.95 in 10.0 mi South 18.4 mph 24.2 mph N/A   Clear
10:55 PM 46.4 °F 39.2 °F 28.4 °F 50% 29.95 in 10.0 mi SSE 18.4 mph 24.2 mph N/A   Clear
11:15 PM 45.7 °F 38.0 °F 28.8 °F 52% 29.94 in 10.0 mi South 19.6 mph 23.0 mph N/A   Clear
11:35 PM 45.5 °F 38.3 °F 28.9 °F 52% 29.93 in 10.0 mi SSE 17.3 mph - N/A   Clear
11:55 PM 45.1 °F 37.9 °F 29.1 °F 54% 29.92 in 10.0 mi SSE 17.3 mph 25.3 mph N/A   Clear